Погода в Серове

Поиск расширенной информации на нашем сайте:

Полезная информация:

Новости сайта



02.01.2020
Опубликован Долгосрочный прогноз погоды по городам России и ближнего зарубежья на январь 2020 года.
Карты: Прогноз на январь и февраль 2020 года, Сравнение прогнозируемой аномалии приземной температуры воздуха на январь 2020 года по разным моделям.




Погода в Серове - сегодня

Время (UTC), дата Ветер
(°,м/с) 
Видим.   Явления Облачность Т
(°С)
Тd
(°С)
f(%) Тe
(°С)
Pmin
(гПа)
dP
(гПа)
Po
(мм)
O2
(г/м3)
Тmin Tmax R s Состояние
почвы
06 04.06.20 100 (В) 20000 м    ясно 
+14.4 +0.3 38 +15  1024.4  757  290           
09 04.06.20 100 (В) 20000 м    ясно 
+17.2 -2.6 26 +19  1024  -0.3  757  287           
12 04.06.20 180 (Ю) 20000 м    ясно 
+18.6 -2.2 24 +20  1023.1  -0.8  756  286           
15 04.06.20 120 (ЮВ) 20000 м    ясно 
+17.9 -2.3 25 +19  1022.4  -0.7  756  286    +19.3       
18 04.06.20 тихо ()   10 км    ясно 
+11.2 +2.3 54 +11  1023.3  0.6  756  292           
21 04.06.20 310 (СЗ) 10 км    ясно 
+7 +1.8 69 +8  1024.1  0.5  757  297           
00 05.06.20 тихо ()   20000 м    ясно 
+4.9 +1.6 79 +5  1024.8  0.6  757  299           
03 05.06.20 тихо ()   20000 м    ясно 
+13.6 +4.4 54 +14  1024.6  0.3  757  290  +4.7        сухая 
06 05.06.20 190 (Ю) 20000 м    ясно 
+18.8 +4.4 39 +19  1024.7  -0.2  757  285           
09 05.06.20 170 (Ю) 20000 м    ясно 
+21.1 -0.7 23 +21  1023.2  -0.8  756  283           
12 05.06.20 150 (ЮВ) 20000 м    ясно 
+22.8 -1.4 20 +23  1022.4  -0.8  756  281           
15 05.06.20 150 (ЮВ) 20000 м    3/0 верхняя 
[Ci fib]
+21.8 -0.1 23 +22  1021.6  -0.8  755  282    +23       
18 05.06.20 тихо ()   10 км    ясно 
+15.5 +1 37 +16  1022.1  0.2  755  288           
21 05.06.20 300 (СЗ) 10 км    ясно 
+10.7 +2.9 58 +12  1022.9  0.5  756  293           
00 06.06.20 тихо ()   20000 м    5/0 верхняя 
[Ci fib]
+9.5 +4.5 71 +10  1023.4  0.5  756  294           
03 06.06.20 170 (Ю) 20000 м    ясно 
+17.4 +8 54 +19  1023.2  0.2  756  285  +7.9        сухая 
06 06.06.20 170 (Ю) 20000 м    ясно 
+23.5 +10 42 +25  1022.1  -0.8  756  279           
09 06.06.20 190 (Ю) 20000 м    5/5 600 м 
[Cu hum]
+25.4 +7.9 33 +25  1021.2  -0.7  755  277           
12 06.06.20 200 (Ю) 20000 м    8/8 600 м 
[Cu hum]
+25.4 +7.5 32 +25  1020.2  -1  754  277           
15 06.06.20 190 (Ю) 20000 м    ясно 
+24 +6.3 32 +24  1019.3  -0.9  754  278    +26.1       
18 06.06.20 тихо ()   10 км    ясно 
+18.2 +8.3 52 +18  1020.1  0.5  754  283           
21 06.06.20 тихо ()   10 км    ясно 
+14.4 +8.3 67 +14  1020.5  0.2  754  287           
00 07.06.20 300 (СЗ) 20000 м    ясно 
+12.1 +8 76 +13  1021.2  0.6  755  290           
03 07.06.20 230 (ЮЗ) 20000 м    ясно 
+18.8 +10 57 +21  1021.2  0.3  755  283  +11        сухая 
06 07.06.20 220 (ЮЗ) 20000 м    ясно 
+25.6 +3.5 24 +26  1020.8  0.1  755  278           
Время (UTC), дата Ветер
(°,м/с) 
Видим.   Явления Облачность Т
(°С)
Тd
(°С)
f(%) Тe
(°С)
Pmin
(гПа)
dP
(гПа)
Po
(мм)
O2
(г/м3)
Тmin Tmax R s Состояние
почвы

Для получения пояснительной информации подведите курсор к названию столбца.

ПОГОДА в Серове - архив

Всё, что Вы хотите узнать о погоде в Серове - удобно и подробно!

Выберите нужную дату (начиная с 1 января 2019* года) и нажмите кнопку "Найти".
Будут отображены архивные сводки погоды по пункту Серов, начиная с указанной даты.


Отображать данные в формате CSV (для использования в таблицах Excel)


Внимание! Наш архив погоды предназначен исключительно для личного некоммерческого использования в познавательных целях. Если Вам необходимы официальные справки о состоянии погоды (для производственных, юридических, коммерческих и т.п. целей), обращайтесь в органы Росгидромета.

*Примечание: данная дата относится к архиву по метеостанциям СССР (Россия, СНГ, Балтия).
Архив по метеостанциям Зарубежной Европы и Азии (кроме Китая) хранится 10 дней, по другим регионам земного шара (Китай, Африка, Америка, Австралия, Океания) - 1 день.

Серов - район местоположения метеостанции


Название, широта, долгота, высота метеостанции:
Серов 59.6°ш. 60.5°д. 130 м над ур. моря [Российская Федерация]

Дополнительная информация

В oтличие oт бoльшинства пoгoдных сайтoв мы публикуем пoдрoбную метеoинфoрмацию в детальнoм прoфессиoнальнoм фoрмате.

Характеристики температуры и влажнoсти вoздуха измеряются на высoте 2 м в тени вдали oт зданий и деревьев.
Скoрoсть ветра измеряется на высoте 10 м (на урoвне рoста челoвека скoрoсть ветра ниже в 1.5-2 раза). Если метеoстанция нахoдится в гoрoде или в лесу, тo скoрoсть ветра занижена на 2-4 м/с пo сравнению с oткрытым местoм. Скoрoсть ветра над акватoриями крупных рек и oзёр, а также на вершинах хoлмoв на 2-5 м/с выше, чем в oбычных услoвиях.
Атмoсфернoе давление в разных тoчках местнoсти мoжет значительнo oтличаться oт давления на метеoстанции, в зависимoсти oт услoвий рельефа (при пoдъёме на 10 м давление пoнижается примернo на 1 мм рт.ст.).